{"data":{"norad_id":63812,"intl_designator":"2025-092J","name":"STARLINK-34101","alt_names":[],"object_type":"PAYLOAD","status":"ACTIVE","operator":null,"country":"US","launch_date":"2025-05-04","launch_site_code":"AFETR","launch_vehicle":null,"mission":null,"orbit_class":"UNKNOWN","rcs_meters":null,"size_class":null,"mass_kg":null,"dimensions":null,"purposes":["comms"],"wikipedia_slug":null,"has_3d_model":false,"image_url":null,"decayed_at":null,"tle_current":{"epoch":"2026-09-20T02:42:14.454720Z","epoch_age_seconds":183382,"freshness":"STALE","line1":"1 63812U 25092J   26263.11266730  .00016826  00000+0  61882-3 0  9993","line2":"2 63812  43.0002 154.1506 0001534 266.3716  93.6960 15.27620057 78291","mean_motion":15.27620057,"eccentricity":0.0001534,"inclination_deg":43.0002,"raan_deg":154.1506,"arg_perigee_deg":266.3716,"mean_anomaly_deg":93.696,"bstar":0.00061882,"rev_number":7829,"period_min":94.264276866587,"perigee_km":481.87666604425,"apogee_km":483.98164114018,"semimajor_km":6861.0661535922,"source":"CELESTRAK","updated_at":"2026-09-21T09:00:35.105343Z"}}}